SCP
0 0 0 0 0 0 0 0 0 0 0 0 0 0 0 0 0 0 0 0 0 0 0 0 0 0 0 0 0 0 0 0 0 -0 0 -0 0 0 0 0 0 0 0
0 0 0 0 0 0 0 0 0 0 0 0 0 0 0 0 0 0 0 0 0 0 0 0 0 0 0 0 0 0 0 0 0 -0 -0 -0 -0 0 0 0 0 0 0
0 0 0 0 0 0 0 0 0 0 0 0 0 0 0 0 0 0 0 0 0 0 0 0 0 0 0 0 0 0 0 0 0 0 -0 -0 0 0 0 0 0 0 0
0 0 0 0 0 0 0 0 0 0 0 0 0 0 0 0 0 0 0 0 0 0 0 0 0 0 0 0 0 0 0 0 0 0 0 0 0 -0 -0 0 0 0 0
0 0 0 0 0 0 0 0 0 0 0 0 0 0 0 0 0 0 0 0 0 0 0 0 0 0 0 0 0 0 0 0 0 0 0 0 0 0 0 0 0 0 0
0 0 0 0 0 0 0 0 0 0 0 0 0 0 0 0 0 0 0 0 0 0 0 0 0 0 0 0 0 0 0 0 0 0 0 0 0 0 0 0 0 0 -0
0 0 0 0 0 0 0 0 0 0 0 0 0 0 0 0 0 0 0 0 0 0 0 0 0 0 0 0 0 0 0 0 0 0 0 0 0 0 0 0 0 0 0
0 0 0 0 0 0 0 0 0 0 0 0 0 0 0 0 0 0 0 0 0 0 0 0 0 0 0 0 0 0 0 0 0 0 0 0 0 0 0 0 0 0 0
0 0 0 0 0 0 0 0 0 0 0 0 0 0 0 0 0 0 0 0 0 0 0 0 0 0 0 0 0 0 0 0 0 0 0 0 0 0 0 0 0 0 0
0 0 0 0 0 0 0 0 0 0 0 0 0 0 0 0 0 0 0 0 0 0 0 0 0 0 0 0 0 0 0 0 0 0 0 0 0 0 0 0 0 0 0
0 0 0 0 0 0 0 0 0 0 0 0 0 0 0 0 0 0 0 0 0 0 0 0 0 0 0 0 0 0 0 0 0 0 0 0 0 0 0 0 0 0 0
0 0 0 0 0 0 0 0 0 0 0 0 0 0 0 0 0 0 0 0 0 0 0 0 0 0 0 0 0 0 0 0 0 0 0 0 0 0 0 0 0 0 0
0 0 0 0 0 0 0 0 0 0 0 0 0 0 0 0 0 0 0 0 0 0 0 0 0 0 0 0 0 0 0 0 0 0 0 0 0 0 0 0 0 0 0
0 0 0 0 0 0 0 0 0 0 0 0 0 0 0 0 0 0 0 0 0 0 0 0 0 0 0 0 0 0 0 0 0 0 0 0 0 0 0 0 0 0 0
0 0 0 0 0 0 0 0 0 0 0 0 0 0 0 0 0 0 0 0 0 0 0 0 0 0 0 0 0 0 0 0 0 0 0 0 0 0 0 0 0 0 0
0 0 0 0 0 0 0 0 0 0 0 0 0 0 0 0 0 0 0 0 0 0 0 0 0 0 0 0 0 0 0 0 0 0 0 0 0 0 0 0 0 0 0
0 0 0 0 0 0 0 0 0 0 0 0 0 0 0 0 0 0 0 0 0 0 0 0 0 0 0 0 0 0 0 0 0 0 0 0 0 0 0 0 0 0 0
0 0 0 0 0 0 0 0 0 0 0 0 0 0 0 0 0 0 0 0 0 0 0 0 0 0 0 0 0 0 0 0 0 0 0 0 0 0 0 0 0 0 0
0 0 0 0 0 0 0 0 0 0 0 0 0 0 0 0 0 0 0 0 0 0 0 0 0 0 0 0 0 0 0 0 0 0 0 0 0 0 0 0 0 0 0
0 0 0 0 0 0 0 0 0 0 0 0 0 0 0 0 0 0 0 0 0 0 0 0 0 0 0 0 0 0 0 0 0 0 0 0 0 0 0 0 0 0 0
0 0 0 0 0 0 0 0 0 0 0 0 0 0 0 0 0 0 0 0 0 0 0 0 0 0 0 0 0 0 0 0 0 0 0 0 0 0 0 0 0 0 0
0 0 0 0 0 0 0 0 0 0 0 0 0 0 0 0 0 0 0 0 0 0 0 0 0 0 0 0 0 0 0 0 0 0 0 0 0 0 0 0 0 0 0
0 0 0 0 0 0 0 0 0 0 0 0 0 0 0 0 0 0 0 0 0 0 0 0 0 0 0 0 0 0 0 0 0 0 0 0 0 0 0 0 0 0 0
0 0 0 0 0 0 0 0 0 0 0 0 0 0 0 0 0 0 0 0 0 0 0 0 0 0 0 0 0 0 0 0 0 0 0 0 0 0 0 0 0 0 0
0 0 0 0 0 0 0 0 0 0 0 0 0 0 0 0 0 0 0 0 0 0 0 0 0 0 0 0 0 0 0 0 0 0 0 0 0 0 0 0 0 0 0
0 0 0 0 0 0 0 0 0 0 0 0 0 0 0 0 0 0 0 0 0 0 0 0 0 0 0 0 0 0 0 0 0 0 0 0 0 0 0 0 0 0 0
Wind_Speed_500mb
12 13 15 17 22 26 30 38 46 52 52 49 46 38 34 30 24 22 16 14 14 14 14 14 15 15 14 18 21 23 27 33 38 39 39 26 30 19 13 35 29 19 26
17 19 23 27 30 33 43 46 53 53 52 48 41 34 28 25 30 33 33 31 28 26 23 22 21 21 21 22 26 29 34 38 46 47 32 22 21 20 49 31 25 40 38
26 25 29 35 37 41 45 49 49 46 37 30 30 32 42 46 43 37 32 28 21 18 16 17 19 23 28 33 36 38 38 40 40 42 34 19 15 63 11 46 35 38 62
28 28 32 38 43 44 44 43 41 40 42 44 49 50 48 46 40 34 30 25 22 21 22 24 25 26 27 31 39 43 45 45 45 41 38 30 28 22 39 41 69 45 54
34 34 34 41 44 46 46 47 50 53 53 48 45 42 41 37 33 28 23 21 22 22 23 25 27 29 33 36 39 41 46 47 47 45 46 44 43 35 39 68 68 87 79
38 35 39 46 50 52 54 55 55 53 48 43 39 34 31 31 28 25 21 19 18 18 19 21 26 33 38 42 46 49 51 54 53 52 50 46 43 51 48 61 72 80 97
51 46 50 52 56 57 57 55 51 50 44 40 36 32 30 27 23 19 15 12 14 19 25 31 36 41 45 49 49 51 55 59 62 63 63 59 56 56 58 62 78 81 93
51 51 54 58 61 61 58 54 49 47 41 36 33 30 27 23 18 14 12 13 19 25 29 31 35 36 43 44 48 50 54 59 63 63 61 61 61 58 59 61 63 81 83
56 55 54 56 58 56 53 50 46 43 40 36 32 27 21 16 14 12 13 17 18 21 28 30 30 33 35 46 52 58 61 65 67 67 67 65 65 63 63 62 61 62 78
61 60 59 59 60 57 53 50 44 42 39 34 27 22 18 14 11 10 9 11 16 18 22 29 32 35 42 52 59 65 66 70 71 71 70 70 70 71 70 69 66 57 64
67 65 65 63 63 59 56 54 49 46 40 33 26 20 16 12 7 1 8 12 17 20 24 32 39 45 51 59 64 67 70 72 74 73 74 74 72 73 73 73 74 75 61
67 66 67 65 62 61 56 55 51 46 40 34 27 21 15 9 3 6 9 14 20 25 30 37 44 51 54 60 66 71 74 75 76 77 76 77 75 76 75 73 72 65 61
65 65 66 71 71 68 64 57 54 49 43 36 28 21 16 10 5 8 13 20 25 29 34 41 49 54 59 65 69 72 74 75 75 74 74 75 74 76 74 71 71 67 64
74 73 72 76 75 73 69 59 54 53 47 39 31 24 18 9 6 10 17 22 26 30 38 47 53 56 62 66 68 72 73 73 72 71 71 72 71 72 70 73 76 73 68
75 81 80 79 76 76 70 61 56 56 50 42 34 26 18 11 9 13 21 26 30 36 44 50 54 59 63 66 69 71 71 72 72 72 71 70 68 68 63 63 67 69 74
83 83 78 77 80 83 79 71 68 62 55 47 38 29 22 15 13 17 25 30 34 40 46 51 56 61 65 65 65 69 72 72 71 73 71 69 67 66 55 57 58 59 67
83 84 93 95 91 90 88 83 69 62 60 52 44 35 29 22 16 21 30 33 36 43 46 52 58 62 63 63 66 69 71 71 70 67 67 67 62 61 62 60 58 61 61
65 75 76 76 87 90 89 75 68 68 60 55 49 44 37 25 20 26 33 35 39 41 46 53 59 64 65 63 65 68 68 68 66 62 60 62 64 64 61 67 71 71 78
61 70 79 80 79 92 84 74 70 65 64 59 55 50 39 29 27 31 36 36 38 42 47 54 61 66 67 63 64 66 67 65 61 60 61 63 69 65 63 71 81 84 83
47 61 74 77 84 82 76 64 76 71 65 60 58 50 38 35 34 35 36 36 38 43 48 55 61 65 68 62 61 61 59 61 62 61 61 60 58 61 63 70 79 94 94
36 44 54 69 73 73 64 75 70 66 60 60 55 47 42 40 39 38 38 38 39 42 46 54 61 64 64 62 57 51 46 52 62 67 69 73 64 66 70 69 78 84 82
37 41 48 58 66 62 57 63 63 60 58 56 52 48 46 44 42 42 40 38 40 43 47 54 60 64 63 56 52 45 41 47 55 64 70 69 69 73 70 68 66 65 66
34 35 38 43 46 49 52 53 55 52 53 56 55 52 50 48 45 43 41 41 42 44 48 52 57 60 60 56 48 47 46 45 51 57 59 67 66 68 69 63 59 55 58
31 31 37 43 46 50 51 48 45 46 54 58 58 57 53 50 48 48 47 45 44 47 48 50 53 56 59 55 50 49 51 51 55 60 73 64 61 59 59 61 58 57 56
33 33 38 47 50 51 50 49 48 51 58 60 60 59 56 54 54 53 50 48 47 48 50 49 51 52 58 53 44 45 51 51 54 62 62 60 58 61 62 64 64 64 61
35 34 41 52 56 55 53 52 49 53 57 61 62 62 61 59 57 56 53 51 52 52 51 49 47 48 53 50 42 43 43 48 49 53 56 56 54 57 60 64 66 68 68
Wind_Direction_500mb
199 190 181 161 159 159 159 163 161 152 151 151 150 152 146 141 143 137 139 131 116 109 97 86 73 63 47 36 28 18 7 357 355 352 355 10 338 337 349 333 332 342 334
173 171 164 161 155 158 158 157 152 150 146 147 147 150 150 159 149 130 120 109 102 92 83 71 57 42 30 19 12 8 7 3 2 2 1 341 334 301 316 317 316 313 313
174 164 158 161 157 151 150 150 150 151 153 154 156 155 141 131 123 118 113 105 96 83 67 52 41 30 21 14 10 5 3 3 2 2 12 350 329 323 311 309 308 306 307
170 162 158 158 162 159 158 159 158 155 150 142 141 141 136 130 122 116 104 96 83 66 51 38 28 19 13 8 7 5 2 359 357 355 353 342 322 321 315 299 302 320 299
169 159 155 160 159 158 158 157 154 149 145 144 142 140 134 126 120 112 101 82 64 49 37 28 20 14 10 7 3 358 356 353 350 347 342 335 324 323 295 302 307 303 307
165 157 157 155 152 149 148 147 146 143 141 140 136 134 128 120 111 100 88 74 57 41 28 17 8 3 0 358 355 353 350 346 343 340 337 331 322 314 305 298 299 302 307
166 163 160 157 153 152 151 150 149 144 145 145 140 134 126 118 111 105 88 65 37 19 12 8 3 358 353 350 347 344 341 336 333 332 329 325 319 312 307 301 301 301 302
171 169 165 162 161 158 157 157 158 154 150 148 143 137 132 129 121 104 78 47 21 10 2 356 349 344 338 335 332 332 332 328 325 324 322 318 315 310 304 298 296 299 299
176 173 171 170 166 164 164 166 162 158 155 153 148 142 135 124 107 79 44 21 9 353 340 333 328 329 333 329 330 329 329 324 323 322 320 316 313 307 303 296 290 290 297
178 178 178 176 174 174 172 170 170 168 164 160 153 143 133 122 101 71 36 349 332 329 326 322 323 330 336 332 330 330 327 325 325 323 320 317 314 308 303 300 294 286 284
181 180 182 182 182 180 178 177 176 172 168 163 156 153 147 138 129 29 334 326 321 322 325 325 330 336 337 331 330 328 326 324 322 320 316 313 310 306 303 300 297 293 285
183 183 186 186 185 186 183 181 180 177 173 170 170 167 166 171 213 305 318 321 322 329 334 331 330 333 331 329 328 326 324 321 317 315 312 309 308 304 302 301 298 293 287
183 184 187 191 192 190 190 186 185 184 182 180 179 180 188 199 264 306 326 332 329 329 328 327 329 330 328 328 326 323 320 317 314 312 309 306 305 302 301 298 295 293 292
187 188 192 195 196 193 193 189 187 191 189 189 190 194 201 220 268 312 327 323 321 323 327 327 328 327 326 326 324 322 319 317 314 312 308 305 302 299 297 294 293 296 295
192 195 195 195 194 193 194 190 191 195 195 197 198 204 210 227 255 310 323 320 321 322 324 326 326 326 326 326 324 321 319 316 313 310 306 303 300 295 296 296 298 297 293
200 199 197 195 195 195 194 194 198 199 201 203 206 213 217 225 258 304 318 314 315 320 323 324 325 325 326 325 321 319 317 315 312 310 308 304 300 299 294 292 291 290 292
204 201 200 200 198 196 199 200 201 203 206 207 213 219 223 228 260 296 310 307 312 318 321 323 324 324 324 323 320 318 316 314 313 309 307 307 305 305 308 303 297 293 291
209 206 202 199 198 200 204 204 205 208 209 214 218 223 224 234 262 288 300 302 309 313 319 322 323 323 323 322 319 319 316 314 313 312 312 315 317 319 309 307 304 305 306
229 216 205 199 193 202 205 204 211 212 214 215 222 225 228 242 263 280 291 295 304 311 318 322 323 323 323 323 321 319 316 316 318 322 324 323 320 319 312 305 303 302 300
217 205 203 199 205 209 204 214 214 213 214 220 224 228 234 248 262 274 283 290 300 309 317 322 323 322 321 321 319 317 318 321 323 320 319 318 312 311 309 305 304 301 302
204 203 209 210 210 204 214 214 211 214 219 222 226 231 240 251 260 271 276 286 296 305 315 321 321 320 319 320 321 319 319 317 319 319 321 323 319 314 311 306 299 299 303
183 189 193 198 203 210 209 207 211 216 220 225 229 236 244 251 259 264 270 282 293 303 311 317 319 321 320 320 321 319 316 317 316 317 318 320 318 312 312 308 307 306 302
188 190 195 198 198 199 202 205 210 217 225 231 234 239 243 249 256 262 269 277 286 296 305 312 317 318 317 320 320 320 321 318 315 316 314 314 320 323 326 326 321 318 317
194 201 203 204 204 202 203 210 221 230 233 235 236 239 243 251 257 260 264 273 283 292 300 307 311 313 314 317 317 323 326 323 324 317 312 321 326 329 334 338 338 332 327
205 213 217 216 214 211 214 221 230 233 235 236 237 239 244 250 256 258 263 272 281 289 296 301 305 310 309 311 312 313 314 318 315 308 315 327 331 336 340 341 341 342 339
209 216 227 226 224 223 226 231 237 237 238 238 238 242 246 251 256 260 263 270 278 286 294 299 300 300 297 301 304 303 308 309 311 311 320 325 331 335 337 338 340 344 343
Wind_Speed_850mb
12 13 15 17 22 26 30 38 46 52 52 49 46 38 34 30 24 22 16 14 14 14 14 14 15 15 14 18 21 23 27 33 38 39 39 26 30 19 13 35 29 19 26
17 19 23 27 30 33 43 46 53 53 52 48 41 34 28 25 30 33 33 31 28 26 23 22 21 21 21 22 26 29 34 38 46 47 32 22 21 20 49 31 25 40 38
26 25 29 35 37 41 45 49 49 46 37 30 30 32 42 46 43 37 32 28 21 18 16 17 19 23 28 33 36 38 38 40 40 42 34 19 15 63 11 46 35 38 62
28 28 32 38 43 44 44 43 41 40 42 44 49 50 48 46 40 34 30 25 22 21 22 24 25 26 27 31 39 43 45 45 45 41 38 30 28 22 39 41 69 45 54
34 34 34 41 44 46 46 47 50 53 53 48 45 42 41 37 33 28 23 21 22 22 23 25 27 29 33 36 39 41 46 47 47 45 46 44 43 35 39 68 68 87 79
38 35 39 46 50 52 54 55 55 53 48 43 39 34 31 31 28 25 21 19 18 18 19 21 26 33 38 42 46 49 51 54 53 52 50 46 43 51 48 61 72 80 97
51 46 50 52 56 57 57 55 51 50 44 40 36 32 30 27 23 19 15 12 14 19 25 31 36 41 45 49 49 51 55 59 62 63 63 59 56 56 58 62 78 81 93
51 51 54 58 61 61 58 54 49 47 41 36 33 30 27 23 18 14 12 13 19 25 29 31 35 36 43 44 48 50 54 59 63 63 61 61 61 58 59 61 63 81 83
56 55 54 56 58 56 53 50 46 43 40 36 32 27 21 16 14 12 13 17 18 21 28 30 30 33 35 46 52 58 61 65 67 67 67 65 65 63 63 62 61 62 78
61 60 59 59 60 57 53 50 44 42 39 34 27 22 18 14 11 10 9 11 16 18 22 29 32 35 42 52 59 65 66 70 71 71 70 70 70 71 70 69 66 57 64
67 65 65 63 63 59 56 54 49 46 40 33 26 20 16 12 7 1 8 12 17 20 24 32 39 45 51 59 64 67 70 72 74 73 74 74 72 73 73 73 74 75 61
67 66 67 65 62 61 56 55 51 46 40 34 27 21 15 9 3 6 9 14 20 25 30 37 44 51 54 60 66 71 74 75 76 77 76 77 75 76 75 73 72 65 61
65 65 66 71 71 68 64 57 54 49 43 36 28 21 16 10 5 8 13 20 25 29 34 41 49 54 59 65 69 72 74 75 75 74 74 75 74 76 74 71 71 67 64
74 73 72 76 75 73 69 59 54 53 47 39 31 24 18 9 6 10 17 22 26 30 38 47 53 56 62 66 68 72 73 73 72 71 71 72 71 72 70 73 76 73 68
75 81 80 79 76 76 70 61 56 56 50 42 34 26 18 11 9 13 21 26 30 36 44 50 54 59 63 66 69 71 71 72 72 72 71 70 68 68 63 63 67 69 74
83 83 78 77 80 83 79 71 68 62 55 47 38 29 22 15 13 17 25 30 34 40 46 51 56 61 65 65 65 69 72 72 71 73 71 69 67 66 55 57 58 59 67
83 84 93 95 91 90 88 83 69 62 60 52 44 35 29 22 16 21 30 33 36 43 46 52 58 62 63 63 66 69 71 71 70 67 67 67 62 61 62 60 58 61 61
65 75 76 76 87 90 89 75 68 68 60 55 49 44 37 25 20 26 33 35 39 41 46 53 59 64 65 63 65 68 68 68 66 62 60 62 64 64 61 67 71 71 78
61 70 79 80 79 92 84 74 70 65 64 59 55 50 39 29 27 31 36 36 38 42 47 54 61 66 67 63 64 66 67 65 61 60 61 63 69 65 63 71 81 84 83
47 61 74 77 84 82 76 64 76 71 65 60 58 50 38 35 34 35 36 36 38 43 48 55 61 65 68 62 61 61 59 61 62 61 61 60 58 61 63 70 79 94 94
36 44 54 69 73 73 64 75 70 66 60 60 55 47 42 40 39 38 38 38 39 42 46 54 61 64 64 62 57 51 46 52 62 67 69 73 64 66 70 69 78 84 82
37 41 48 58 66 62 57 63 63 60 58 56 52 48 46 44 42 42 40 38 40 43 47 54 60 64 63 56 52 45 41 47 55 64 70 69 69 73 70 68 66 65 66
34 35 38 43 46 49 52 53 55 52 53 56 55 52 50 48 45 43 41 41 42 44 48 52 57 60 60 56 48 47 46 45 51 57 59 67 66 68 69 63 59 55 58
31 31 37 43 46 50 51 48 45 46 54 58 58 57 53 50 48 48 47 45 44 47 48 50 53 56 59 55 50 49 51 51 55 60 73 64 61 59 59 61 58 57 56
33 33 38 47 50 51 50 49 48 51 58 60 60 59 56 54 54 53 50 48 47 48 50 49 51 52 58 53 44 45 51 51 54 62 62 60 58 61 62 64 64 64 61
35 34 41 52 56 55 53 52 49 53 57 61 62 62 61 59 57 56 53 51 52 52 51 49 47 48 53 50 42 43 43 48 49 53 56 56 54 57 60 64 66 68 68
Wind_Direction_850mb
199 190 181 161 159 159 159 163 161 152 151 151 150 152 146 141 143 137 139 131 116 109 97 86 73 63 47 36 28 18 7 357 355 352 355 10 338 337 349 333 332 342 334
173 171 164 161 155 158 158 157 152 150 146 147 147 150 150 159 149 130 120 109 102 92 83 71 57 42 30 19 12 8 7 3 2 2 1 341 334 301 316 317 316 313 313
174 164 158 161 157 151 150 150 150 151 153 154 156 155 141 131 123 118 113 105 96 83 67 52 41 30 21 14 10 5 3 3 2 2 12 350 329 323 311 309 308 306 307
170 162 158 158 162 159 158 159 158 155 150 142 141 141 136 130 122 116 104 96 83 66 51 38 28 19 13 8 7 5 2 359 357 355 353 342 322 321 315 299 302 320 299
169 159 155 160 159 158 158 157 154 149 145 144 142 140 134 126 120 112 101 82 64 49 37 28 20 14 10 7 3 358 356 353 350 347 342 335 324 323 295 302 307 303 307
165 157 157 155 152 149 148 147 146 143 141 140 136 134 128 120 111 100 88 74 57 41 28 17 8 3 0 358 355 353 350 346 343 340 337 331 322 314 305 298 299 302 307
166 163 160 157 153 152 151 150 149 144 145 145 140 134 126 118 111 105 88 65 37 19 12 8 3 358 353 350 347 344 341 336 333 332 329 325 319 312 307 301 301 301 302
171 169 165 162 161 158 157 157 158 154 150 148 143 137 132 129 121 104 78 47 21 10 2 356 349 344 338 335 332 332 332 328 325 324 322 318 315 310 304 298 296 299 299
176 173 171 170 166 164 164 166 162 158 155 153 148 142 135 124 107 79 44 21 9 353 340 333 328 329 333 329 330 329 329 324 323 322 320 316 313 307 303 296 290 290 297
178 178 178 176 174 174 172 170 170 168 164 160 153 143 133 122 101 71 36 349 332 329 326 322 323 330 336 332 330 330 327 325 325 323 320 317 314 308 303 300 294 286 284
181 180 182 182 182 180 178 177 176 172 168 163 156 153 147 138 129 29 334 326 321 322 325 325 330 336 337 331 330 328 326 324 322 320 316 313 310 306 303 300 297 293 285
183 183 186 186 185 186 183 181 180 177 173 170 170 167 166 171 213 305 318 321 322 329 334 331 330 333 331 329 328 326 324 321 317 315 312 309 308 304 302 301 298 293 287
183 184 187 191 192 190 190 186 185 184 182 180 179 180 188 199 264 306 326 332 329 329 328 327 329 330 328 328 326 323 320 317 314 312 309 306 305 302 301 298 295 293 292
187 188 192 195 196 193 193 189 187 191 189 189 190 194 201 220 268 312 327 323 321 323 327 327 328 327 326 326 324 322 319 317 314 312 308 305 302 299 297 294 293 296 295
192 195 195 195 194 193 194 190 191 195 195 197 198 204 210 227 255 310 323 320 321 322 324 326 326 326 326 326 324 321 319 316 313 310 306 303 300 295 296 296 298 297 293
200 199 197 195 195 195 194 194 198 199 201 203 206 213 217 225 258 304 318 314 315 320 323 324 325 325 326 325 321 319 317 315 312 310 308 304 300 299 294 292 291 290 292
204 201 200 200 198 196 199 200 201 203 206 207 213 219 223 228 260 296 310 307 312 318 321 323 324 324 324 323 320 318 316 314 313 309 307 307 305 305 308 303 297 293 291
209 206 202 199 198 200 204 204 205 208 209 214 218 223 224 234 262 288 300 302 309 313 319 322 323 323 323 322 319 319 316 314 313 312 312 315 317 319 309 307 304 305 306
229 216 205 199 193 202 205 204 211 212 214 215 222 225 228 242 263 280 291 295 304 311 318 322 323 323 323 323 321 319 316 316 318 322 324 323 320 319 312 305 303 302 300
217 205 203 199 205 209 204 214 214 213 214 220 224 228 234 248 262 274 283 290 300 309 317 322 323 322 321 321 319 317 318 321 323 320 319 318 312 311 309 305 304 301 302
204 203 209 210 210 204 214 214 211 214 219 222 226 231 240 251 260 271 276 286 296 305 315 321 321 320 319 320 321 319 319 317 319 319 321 323 319 314 311 306 299 299 303
183 189 193 198 203 210 209 207 211 216 220 225 229 236 244 251 259 264 270 282 293 303 311 317 319 321 320 320 321 319 316 317 316 317 318 320 318 312 312 308 307 306 302
188 190 195 198 198 199 202 205 210 217 225 231 234 239 243 249 256 262 269 277 286 296 305 312 317 318 317 320 320 320 321 318 315 316 314 314 320 323 326 326 321 318 317
194 201 203 204 204 202 203 210 221 230 233 235 236 239 243 251 257 260 264 273 283 292 300 307 311 313 314 317 317 323 326 323 324 317 312 321 326 329 334 338 338 332 327
205 213 217 216 214 211 214 221 230 233 235 236 237 239 244 250 256 258 263 272 281 289 296 301 305 310 309 311 312 313 314 318 315 308 315 327 331 336 340 341 341 342 339
209 216 227 226 224 223 226 231 237 237 238 238 238 242 246 251 256 260 263 270 278 286 294 299 300 300 297 301 304 303 308 309 311 311 320 325 331 335 337 338 340 344 343